Weather in Mirnyy

Russia / Arkhangel'skaya Oblast'     61°04′09″N   40°04′04″E
temp.,
°C
wind,
m/s
gust,
m/s
humid.,
%
clouds,
%
prec.,
mm/h
press.,
hPa
HPBL,
m
8 may, sat
sat800:00+2ssw25955 0.0 1010109
03:00+1s23952 0.0 101153
06:00+4sse2887100 0.0 1011211
09:00+9sse496742 0.0 1010643
12:00+14s61244100 0.0 10092469
15:00+13sse61450100 0.1 10082094
18:00+9s51379100 0.4 10081447
21:00+6sse51190100 2.0 10081015
9 may, sun
sun900:00+6se4995100 3.3 10051096
03:00+6s1498100 6.1 1004249
06:00+5nw2597100 1.5 1004332
09:00+3nw3896100 3.1 1006438
12:00+5nw4790100 1.8 1007737
15:00+5nw4984100 2.0 10111060
18:00+7nw397574 0.1 10131385
21:00+3wnw29805 0.1 1016235
10 may, mon
mon1000:00+1w210861 0.0 1019194
03:000w24864 0.0 102286
06:00+3wsw25730 0.0 1023154
09:00+9sw474792 0.0 1024805
12:00+12sw584182 0.0 10242159
15:00+12sw5948100 0.0 10241955
18:00+8sw4980100 0.1 10251212
21:00+7sw41087100 0.1 1026545
11 may, tue
tue1100:00+8ssw31090100 0.1 1026364
03:00+8ssw31189100 0.1 1026312
06:00+9ssw41286100 0.0 1026356
09:00+15sw4106797 0.0 1026552
12:00+19sw585291 0.0 10261212
15:00+20sw585160 0.0 10261316
18:00+19sw48545 0.0 10271172
21:00+13ssw278316 0.0 1027123
12 may, wed
wed1200:00+11sw3119261 0.0 1028243
03:00+10ssw3109550 0.0 1029205
06:00+12sw398284 0.0 1029252
09:00+17sw365988 0.0 1029674
12:00+21sw35448 0.0 10291383
15:00+22sw454049 0.0 10281556
18:00+21sw24495 0.0 10281285
21:00+14ssw22780 0.0 102822